Temperature
7 7 7 7 7 6 6 6 6 5 5 6 6 6 6 6 5 5 5 5 5 5 5 5 5 5 5 5 5 5 5 5 5 5 5 5 5 5
6 6 6 6 6 6 6 6 5 5 5 5 5 5 5 5 5 5 5 5 5 5 5 5 5 5 5 4 4 4 4 4 4 4 4 4 4 4
6 6 6 6 6 6 6 5 5 5 5 5 5 5 5 5 5 5 4 4 4 4 4 4 4 4 4 4 4 4 4 4 4 4 4 3 3 3
6 5 5 5 5 5 5 5 5 5 4 4 5 5 4 4 4 4 4 4 4 4 4 4 4 4 3 3 3 3 3 3 3 3 3 3 3 3
5 5 5 5 5 5 5 4 4 4 4 4 4 4 4 4 3 3 4 4 4 3 3 3 3 3 3 3 3 3 3 3 3 3 3 2 2 2
5 5 5 4 4 4 4 4 4 4 3 3 3 3 3 3 3 3 3 3 3 3 3 3 3 2 2 2 2 2 2 2 2 2 2 2 2 2
4 4 4 4 4 4 4 4 3 3 3 3 3 3 3 3 3 2 2 2 3 2 2 2 2 2 2 2 2 2 2 2 2 2 1 1 1 1
4 4 3 4 3 3 3 3 3 3 3 3 3 2 3 2 2 2 2 2 2 2 1 2 2 2 2 2 2 2 2 1 1 1 1 1 1 1
3 3 3 3 3 3 3 3 3 2 2 2 2 2 2 2 1 1 1 1 1 1 1 1 1 1 1 1 1 1 1 1 1 1 0 0 0 0
3 3 3 3 3 3 2 2 2 2 2 2 2 2 1 1 1 1 0 0 0 1 0 0 1 1 1 1 1 1 0 0 0 0 -0 -0 -0 -0
2 2 2 2 2 2 2 2 2 2 1 1 1 1 1 1 0 -0 -0 -0 -0 0 -0 -1 -0 -0 0 0 0 -0 -0 -1 -1 -1 -1 -1 -1 -1
2 2 2 2 2 1 1 1 1 1 1 1 1 1 0 0 -0 -0 -1 -1 -1 -1 -1 -1 -2 -2 -2 -1 -1 -1 -1 -1 -1 -1 -1 -1 -1 -2
1 1 1 1 1 1 1 1 1 0 0 0 0 -0 -0 -0 -0 -1 -1 -1 -2 -2 -2 -2 -2 -3 -3 -3 -1 -1 -2 -1 -2 -2 -2 -2 -2 -2
1 1 1 1 1 0 0 0 -0 -0 -0 -1 -1 -1 -1 -1 -1 -1 -1 -2 -2 -2 -2 -3 -3 -3 -3 -3 -3 -2 -2 -2 -2 -2 -2 -2 -2 -3
1 1 1 0 0 -0 -0 -0 -1 -1 -1 -1 -1 -1 -1 -2 -2 -2 -2 -2 -2 -2 -3 -3 -3 -4 -4 -4 -4 -3 -3 -3 -3 -3 -3 -3 -3 -3
-0 -0 -0 -0 -0 -0 -1 -1 -1 -1 -1 -1 -2 -2 -2 -2 -2 -3 -3 -3 -3 -3 -3 -3 -4 -4 -4 -4 -4 -4 -4 -4 -3 -4 -4 -4 -4 -4
-1 -1 -1 -1 -1 -1 -1 -1 -1 -2 -2 -2 -2 -3 -3 -3 -3 -3 -3 -3 -4 -4 -3 -4 -4 -4 -4 -4 -4 -4 -4 -4 -4 -4 -4 -4 -4 -4
-1 -1 -1 -1 -1 -1 -2 -2 -2 -2 -2 -3 -3 -3 -3 -4 -4 -4 -4 -4 -4 -4 -4 -4 -5 -5 -5 -4 -4 -4 -4 -5 -5 -5 -5 -5 -5 -4
-2 -2 -2 -2 -2 -2 -2 -2 -2 -3 -3 -3 -4 -4 -4 -4 -5 -5 -5 -5 -5 -5 -5 -5 -5 -5 -6 -6 -5 -5 -5 -5 -5 -5 -5 -6 -6 -5
-2 -2 -2 -2 -2 -3 -3 -3 -3 -3 -4 -4 -4 -5 -5 -5 -5 -5 -5 -5 -5 -5 -5 -5 -6 -6 -6 -6 -6 -5 -5 -6 -6 -6 -6 -6 -6 -5
-3 -3 -3 -3 -3 -3 -3 -4 -4 -4 -4 -5 -5 -5 -5 -5 -5 -5 -6 -6 -6 -6 -6 -6 -6 -6 -6 -6 -6 -6 -6 -6 -6 -6 -6 -7 -6 -6
-3 -3 -4 -4 -4 -4 -4 -4 -5 -5 -5 -5 -6 -6 -6 -6 -6 -6 -6 -6 -6 -6 -6 -6 -6 -6 -7 -7 -7 -6 -6 -6 -6 -6 -7 -7 -8 -7
-4 -4 -4 -5 -5 -5 -5 -5 -5 -5 -6 -6 -6 -6 -6 -6 -6 -6 -6 -6 -7 -7 -7 -7 -7 -7 -7 -7 -7 -7 -7 -7 -7 -7 -7 -7 -7 -7
Wind_Speed
4 3 2 2 1 2 2 3 3 2 4 4 2 3 4 5 6 5 6 8 9 9 9 8 8 8 9 9 9 9 10 10 10 11 11 11 11 11
3 3 2 2 2 2 2 2 2 3 4 4 4 3 4 5 6 6 7 8 9 9 9 8 9 9 9 10 10 10 10 11 11 11 11 11 12 12
3 4 3 3 2 2 2 2 2 2 3 4 2 2 3 4 4 6 7 7 8 9 9 9 9 10 10 10 10 11 11 12 12 12 12 12 12 13
5 4 4 3 3 3 3 3 3 3 3 4 3 2 3 4 3 4 5 6 7 8 9 10 10 10 11 11 11 12 12 12 13 12 13 13 13 13
6 6 5 4 4 3 4 4 3 3 2 3 4 3 3 2 2 3 3 4 6 7 9 9 10 10 11 11 12 12 12 12 12 13 13 13 13 14
5 6 6 6 6 6 5 5 3 3 2 3 3 3 3 2 2 3 4 3 4 5 7 7 8 10 11 11 12 12 12 12 12 13 13 13 13 14
5 5 6 7 8 6 5 5 5 4 3 3 4 3 3 2 3 3 4 4 4 3 3 4 6 7 9 11 12 12 13 13 12 13 13 13 14 14
5 5 5 6 7 8 8 8 7 6 5 4 4 5 5 4 3 3 3 3 4 2 2 4 4 5 7 8 11 13 13 13 12 12 13 13 14 15
5 5 4 4 5 4 6 6 7 8 8 6 6 7 5 4 4 4 4 4 5 3 2 5 4 6 7 9 12 12 12 12 12 13 13 13 14 14
5 5 5 5 4 4 4 4 4 5 7 6 6 7 6 5 5 5 4 4 4 3 3 4 4 5 5 7 11 11 11 11 12 12 12 13 14 14
4 4 5 5 5 5 3 4 4 4 6 8 9 8 8 8 5 2 2 3 5 4 3 3 3 4 4 4 7 9 9 10 12 13 13 13 14 13
3 4 5 5 6 5 4 5 5 5 3 3 3 4 4 6 6 5 4 4 3 4 3 2 2 2 4 3 3 6 7 10 13 13 13 13 12 9
3 3 4 6 6 6 5 5 6 4 3 3 3 3 2 2 3 4 4 4 4 4 3 2 2 2 3 4 3 4 4 5 7 9 11 12 12 10
5 4 4 6 6 6 4 4 5 3 2 2 2 2 3 3 3 3 5 6 6 6 5 4 3 3 3 5 5 3 4 5 5 6 7 10 11 12
4 5 5 4 3 3 4 4 2 2 2 2 3 3 3 3 3 2 3 3 4 5 6 6 4 4 4 5 5 5 5 4 5 4 4 5 6 6
2 3 2 2 2 2 2 2 1 2 2 3 3 3 2 2 2 2 2 2 3 3 4 6 6 5 4 5 6 7 5 4 3 4 5 6 6 7
2 1 1 1 1 1 1 1 1 1 2 2 2 3 3 2 2 2 2 2 3 3 3 2 4 5 6 5 6 7 6 6 5 5 5 6 5 6
2 2 2 2 3 3 3 2 2 3 3 2 2 3 3 3 3 2 2 3 4 4 4 3 2 2 3 4 7 7 5 5 5 5 4 6 7 6
2 2 3 3 3 3 3 3 3 3 3 3 3 3 3 3 3 3 3 3 4 4 4 3 2 2 4 5 4 6 5 5 4 5 5 5 7 7
2 3 4 4 3 3 3 3 3 3 3 3 3 3 3 3 3 3 3 4 4 4 4 3 3 3 5 5 4 4 6 5 4 5 6 5 6 9
3 4 4 3 3 3 4 4 3 3 3 3 3 4 4 3 4 4 4 6 5 4 5 5 4 5 3 2 4 5 4 7 7 6 5 6 7 6
3 3 3 3 3 3 3 3 4 4 4 4 4 4 4 4 4 5 4 4 4 4 5 4 3 2 2 4 6 6 7 6 7 10 10 9 5 5
3 3 3 3 3 3 4 4 5 5 4 4 4 4 4 4 4 4 4 4 4 4 4 4 3 2 3 4 5 6 7 7 5 6 6 10 12 14
Wind_Direction
189 186 194 215 195 187 174 172 176 231 251 244 241 237 236 240 253 252 262 272 278 279 279 281 284 285 286 286 285 284 283 285 286 286 287 287 280 280
189 183 198 214 203 191 186 188 184 200 240 245 244 250 239 248 258 260 262 269 275 279 275 276 280 282 283 283 282 282 281 281 282 282 283 287 284 279
192 193 208 204 206 205 190 190 199 193 242 272 269 265 238 244 263 265 270 271 275 276 275 275 278 280 282 282 282 282 281 280 280 279 281 282 285 284
204 201 213 208 210 208 202 208 213 210 219 262 280 276 258 247 244 249 268 274 276 277 279 278 277 279 281 282 284 284 282 280 280 278 278 279 281 284
204 207 214 207 220 220 215 217 220 231 224 239 265 271 271 267 264 274 273 273 278 281 284 281 279 279 281 284 286 285 281 280 280 277 275 277 278 280
208 209 210 211 216 214 217 216 213 220 226 230 257 264 265 270 253 265 283 275 278 287 286 285 287 284 282 283 285 283 281 279 279 280 278 276 276 278
214 218 218 219 219 215 217 212 205 212 222 229 245 263 257 255 253 252 269 283 280 261 274 277 281 282 283 283 283 279 279 279 280 281 283 281 278 277
214 224 228 222 226 231 233 226 214 211 219 225 242 248 252 245 246 254 266 283 279 248 247 275 265 269 272 276 279 281 282 280 279 281 283 285 285 281
209 215 229 234 225 220 236 239 236 238 232 223 232 241 244 235 232 247 249 256 260 255 253 274 271 267 269 276 280 281 281 281 283 285 286 286 286 284
211 211 216 222 221 213 218 233 239 241 243 235 231 238 239 233 227 234 246 263 271 259 222 260 271 270 280 278 283 280 280 284 287 288 290 290 289 287
222 215 212 215 228 224 211 226 251 265 261 251 248 247 248 246 237 227 242 257 277 270 229 238 270 290 288 275 276 278 281 287 292 292 292 292 293 293
230 226 224 226 233 231 213 214 237 253 254 272 267 266 253 245 240 222 217 240 266 268 237 226 266 305 299 277 275 283 285 289 293 293 292 294 296 299
222 230 230 233 237 238 237 224 239 245 232 236 251 260 264 248 238 226 218 223 243 255 237 220 258 256 261 289 293 277 275 283 292 292 293 294 295 295
220 225 227 233 239 243 247 249 254 255 220 231 247 255 254 254 253 235 236 237 239 244 240 227 243 249 261 280 285 291 291 282 278 281 288 292 294 293
223 229 240 242 246 242 249 251 242 215 218 241 251 259 253 248 249 260 263 256 260 259 246 238 234 244 241 257 272 283 297 289 274 274 282 284 285 287
240 235 246 242 244 247 250 245 229 219 226 240 254 261 256 249 249 246 258 263 273 280 260 246 233 227 245 255 262 274 273 270 281 284 288 286 281 275
197 175 157 192 234 254 252 246 241 237 252 250 254 266 267 264 265 262 249 251 256 269 279 272 255 248 242 249 264 265 268 272 271 282 293 294 284 277
178 184 206 213 225 233 241 250 247 245 246 247 251 256 259 260 269 274 261 251 258 263 268 272 282 306 297 270 239 253 264 270 277 281 280 289 290 286
196 204 221 227 233 235 240 243 251 254 248 248 251 255 258 261 269 270 268 268 266 264 264 260 253 260 284 292 280 232 243 273 284 286 279 276 284 291
201 214 226 229 231 235 239 245 251 250 246 248 252 256 256 258 264 265 261 263 268 269 271 261 242 237 247 265 279 281 261 257 270 282 290 288 284 288
218 223 229 232 235 239 243 244 242 242 242 241 246 250 250 253 259 260 261 272 276 268 269 272 264 264 262 263 278 283 282 270 270 272 285 295 300 301
225 230 233 234 238 240 242 243 244 243 241 242 245 247 246 245 252 256 256 261 264 265 269 278 283 275 248 257 272 284 295 301 293 289 281 269 272 282
229 232 237 239 239 241 241 243 245 246 239 236 238 243 243 248 251 252 255 256 262 265 271 282 283 270 263 259 271 281 287 296 305 308 300 291 282 277
Height
1498 1500 1501 1502 1503 1504 1505 1505 1505 1503 1503 1503 1504 1505 1505 1505 1505 1505 1504 1504 1503 1503 1502 1501 1501 1500 1499 1498 1497 1496 1495 1495 1494 1493 1492 1492 1491 1490
1495 1496 1497 1498 1499 1500 1501 1501 1501 1501 1500 1499 1500 1500 1501 1501 1501 1501 1500 1499 1499 1498 1497 1496 1496 1495 1494 1493 1492 1491 1491 1490 1489 1488 1487 1487 1486 1485
1491 1493 1493 1494 1495 1496 1497 1497 1498 1498 1496 1495 1496 1496 1496 1496 1496 1496 1495 1494 1494 1493 1492 1491 1491 1490 1489 1488 1487 1486 1485 1485 1484 1483 1482 1481 1480 1480
1487 1488 1489 1490 1491 1492 1493 1493 1493 1493 1493 1491 1491 1491 1491 1491 1491 1491 1490 1490 1489 1488 1487 1486 1486 1485 1484 1483 1482 1481 1480 1479 1478 1477 1477 1476 1475 1474
1483 1484 1485 1486 1487 1488 1488 1488 1489 1489 1488 1488 1487 1487 1487 1487 1486 1485 1485 1484 1484 1483 1482 1481 1480 1480 1478 1477 1476 1475 1474 1473 1472 1472 1471 1470 1469 1468
1478 1479 1480 1481 1482 1483 1483 1484 1484 1484 1484 1483 1482 1482 1482 1481 1481 1480 1479 1479 1478 1477 1476 1476 1475 1474 1473 1472 1471 1470 1469 1468 1467 1466 1465 1464 1463 1462
1473 1475 1476 1477 1478 1479 1479 1479 1479 1479 1479 1478 1477 1477 1476 1476 1476 1475 1474 1473 1472 1472 1471 1471 1470 1468 1467 1466 1465 1464 1463 1462 1461 1460 1459 1458 1457 1456
1468 1470 1471 1472 1473 1474 1474 1474 1475 1474 1474 1473 1472 1472 1471 1471 1471 1470 1469 1467 1466 1467 1465 1464 1464 1462 1461 1460 1459 1458 1457 1456 1455 1454 1453 1451 1450 1449
1463 1465 1466 1467 1468 1468 1469 1469 1469 1469 1469 1469 1468 1467 1466 1466 1466 1465 1464 1463 1462 1461 1460 1457 1457 1456 1455 1454 1453 1452 1451 1450 1449 1448 1446 1445 1444 1443
1459 1460 1461 1462 1463 1463 1463 1463 1463 1463 1463 1463 1463 1462 1462 1461 1461 1460 1459 1458 1457 1456 1455 1452 1450 1449 1448 1448 1447 1446 1445 1444 1443 1441 1440 1438 1437 1436
1455 1456 1456 1457 1458 1458 1458 1458 1457 1458 1458 1458 1457 1457 1456 1456 1456 1455 1453 1452 1450 1449 1449 1447 1444 1443 1441 1441 1440 1440 1439 1438 1436 1435 1434 1432 1430 1429
1450 1451 1452 1452 1453 1453 1453 1453 1452 1452 1452 1452 1452 1451 1451 1450 1450 1450 1449 1447 1445 1444 1443 1442 1439 1438 1435 1434 1434 1434 1432 1431 1430 1429 1427 1426 1424 1422
1445 1446 1447 1448 1448 1449 1449 1448 1448 1448 1447 1447 1446 1445 1445 1444 1444 1443 1443 1442 1441 1439 1439 1437 1435 1433 1432 1429 1427 1427 1426 1425 1423 1422 1421 1419 1418 1416
1441 1441 1442 1443 1443 1444 1444 1444 1444 1443 1442 1442 1441 1439 1439 1438 1438 1437 1437 1437 1436 1435 1434 1432 1430 1429 1427 1424 1421 1420 1420 1419 1417 1415 1414 1413 1411 1410
1437 1437 1438 1438 1439 1439 1439 1439 1439 1438 1437 1436 1435 1434 1433 1433 1432 1432 1431 1431 1430 1429 1428 1427 1425 1423 1422 1420 1417 1415 1413 1412 1411 1410 1408 1406 1404 1403
1433 1433 1434 1434 1434 1435 1435 1435 1434 1433 1433 1431 1430 1429 1428 1427 1427 1426 1425 1425 1424 1423 1422 1421 1420 1418 1416 1415 1413 1410 1409 1407 1405 1404 1402 1400 1398 1397
1428 1429 1429 1430 1430 1430 1430 1430 1430 1429 1428 1427 1426 1425 1423 1422 1421 1421 1420 1419 1419 1417 1416 1415 1414 1413 1411 1410 1408 1406 1404 1402 1400 1398 1396 1393 1392 1391
1424 1424 1425 1425 1425 1425 1425 1425 1425 1424 1423 1423 1421 1420 1419 1418 1417 1416 1415 1415 1414 1413 1411 1410 1409 1407 1406 1404 1404 1401 1400 1398 1396 1394 1392 1389 1386 1385
1420 1420 1421 1421 1421 1421 1421 1420 1420 1419 1419 1418 1417 1416 1415 1414 1413 1411 1411 1410 1409 1408 1407 1406 1405 1403 1401 1399 1398 1398 1396 1393 1391 1389 1387 1385 1381 1379
1416 1416 1416 1417 1416 1416 1416 1415 1415 1415 1414 1414 1413 1412 1411 1410 1409 1408 1407 1406 1405 1404 1403 1402 1401 1399 1398 1396 1394 1392 1392 1389 1387 1384 1382 1380 1377 1375
1411 1412 1412 1412 1412 1411 1411 1411 1410 1410 1410 1409 1408 1408 1407 1406 1405 1404 1403 1402 1401 1400 1398 1397 1397 1396 1394 1392 1390 1387 1387 1386 1384 1381 1378 1375 1371 1369
1406 1407 1407 1407 1407 1406 1406 1406 1405 1405 1405 1404 1404 1403 1402 1402 1401 1400 1399 1398 1397 1395 1394 1393 1392 1391 1390 1388 1385 1383 1381 1380 1379 1377 1375 1373 1369 1365
1402 1402 1402 1402 1402 1402 1401 1401 1400 1400 1400 1399 1399 1398 1398 1397 1396 1395 1395 1394 1393 1391 1390 1389 1388 1387 1385 1384 1382 1379 1377 1375 1374 1371 1370 1368 1366 1363